<?xml version="1.0"?>
<gpx xmlns="http://www.topografix.com/GPX/1/1" xmlns:xsi="http://www.w3.org/2001/XMLSchema-instance" version="1.1" creator="GPX RubyGem 1.0.0 -- http://dougfales.github.io/gpx/" xsi:schemaLocation="http://www.topografix.com/GPX/1/1 http://www.topografix.com/GPX/1/1/gpx.xsd">
  <metadata>
    <name/>
    <time>2026-05-08T19:10:02+00:00</time>
    <bound minlat="90.0" minlon="180.0" maxlat="-90.0" maxlon="-180.0"/>
  </metadata>
  <trk>
    <name/>
    <trkseg>
      <trkpt lat="42.908232" lon="2.624467">
        <time>1970-01-01T00:00:00+00:00</time>
        <ele>400.0</ele>
      </trkpt>
      <trkpt lat="42.908043" lon="2.62398">
        <time>1970-01-01T00:00:00+00:00</time>
        <ele>403.0</ele>
      </trkpt>
      <trkpt lat="42.90801" lon="2.623893">
        <time>1970-01-01T00:00:00+00:00</time>
        <ele>403.0</ele>
      </trkpt>
      <trkpt lat="42.907506" lon="2.622977">
        <time>1970-01-01T00:00:00+00:00</time>
        <ele>407.0</ele>
      </trkpt>
      <trkpt lat="42.907444" lon="2.622822">
        <time>1970-01-01T00:00:00+00:00</time>
        <ele>409.0</ele>
      </trkpt>
      <trkpt lat="42.907417" lon="2.622657">
        <time>1970-01-01T00:00:00+00:00</time>
        <ele>410.0</ele>
      </trkpt>
      <trkpt lat="42.907414" lon="2.622483">
        <time>1970-01-01T00:00:00+00:00</time>
        <ele>411.0</ele>
      </trkpt>
      <trkpt lat="42.907461" lon="2.622049">
        <time>1970-01-01T00:00:00+00:00</time>
        <ele>413.0</ele>
      </trkpt>
      <trkpt lat="42.907711" lon="2.621224">
        <time>1970-01-01T00:00:00+00:00</time>
        <ele>416.0</ele>
      </trkpt>
      <trkpt lat="42.907726" lon="2.620919">
        <time>1970-01-01T00:00:00+00:00</time>
        <ele>419.0</ele>
      </trkpt>
      <trkpt lat="42.907712" lon="2.620144">
        <time>1970-01-01T00:00:00+00:00</time>
        <ele>425.0</ele>
      </trkpt>
      <trkpt lat="42.907948" lon="2.618563">
        <time>1970-01-01T00:00:00+00:00</time>
        <ele>430.0</ele>
      </trkpt>
      <trkpt lat="42.907952" lon="2.618166">
        <time>1970-01-01T00:00:00+00:00</time>
        <ele>433.0</ele>
      </trkpt>
      <trkpt lat="42.907953" lon="2.616598">
        <time>1970-01-01T00:00:00+00:00</time>
        <ele>440.0</ele>
      </trkpt>
      <trkpt lat="42.907861" lon="2.61551">
        <time>1970-01-01T00:00:00+00:00</time>
        <ele>447.0</ele>
      </trkpt>
      <trkpt lat="42.907857" lon="2.614256">
        <time>1970-01-01T00:00:00+00:00</time>
        <ele>452.0</ele>
      </trkpt>
      <trkpt lat="42.907835" lon="2.61406">
        <time>1970-01-01T00:00:00+00:00</time>
        <ele>454.0</ele>
      </trkpt>
      <trkpt lat="42.907712" lon="2.613614">
        <time>1970-01-01T00:00:00+00:00</time>
        <ele>458.0</ele>
      </trkpt>
      <trkpt lat="42.907712" lon="2.613519">
        <time>1970-01-01T00:00:00+00:00</time>
        <ele>458.0</ele>
      </trkpt>
      <trkpt lat="42.907874" lon="2.612889">
        <time>1970-01-01T00:00:00+00:00</time>
        <ele>458.0</ele>
      </trkpt>
      <trkpt lat="42.907894" lon="2.612752">
        <time>1970-01-01T00:00:00+00:00</time>
        <ele>459.0</ele>
      </trkpt>
      <trkpt lat="42.907892" lon="2.612466">
        <time>1970-01-01T00:00:00+00:00</time>
        <ele>461.0</ele>
      </trkpt>
      <trkpt lat="42.907859" lon="2.612201">
        <time>1970-01-01T00:00:00+00:00</time>
        <ele>463.0</ele>
      </trkpt>
      <trkpt lat="42.90767" lon="2.611605">
        <time>1970-01-01T00:00:00+00:00</time>
        <ele>468.0</ele>
      </trkpt>
      <trkpt lat="42.907631" lon="2.611411">
        <time>1970-01-01T00:00:00+00:00</time>
        <ele>468.0</ele>
      </trkpt>
      <trkpt lat="42.907621" lon="2.611245">
        <time>1970-01-01T00:00:00+00:00</time>
        <ele>468.0</ele>
      </trkpt>
      <trkpt lat="42.907628" lon="2.611039">
        <time>1970-01-01T00:00:00+00:00</time>
        <ele>468.0</ele>
      </trkpt>
      <trkpt lat="42.907664" lon="2.610804">
        <time>1970-01-01T00:00:00+00:00</time>
        <ele>469.0</ele>
      </trkpt>
      <trkpt lat="42.907739" lon="2.610475">
        <time>1970-01-01T00:00:00+00:00</time>
        <ele>470.0</ele>
      </trkpt>
      <trkpt lat="42.907992" lon="2.609524">
        <time>1970-01-01T00:00:00+00:00</time>
        <ele>473.0</ele>
      </trkpt>
      <trkpt lat="42.908063" lon="2.609362">
        <time>1970-01-01T00:00:00+00:00</time>
        <ele>473.0</ele>
      </trkpt>
      <trkpt lat="42.908144" lon="2.609239">
        <time>1970-01-01T00:00:00+00:00</time>
        <ele>473.0</ele>
      </trkpt>
      <trkpt lat="42.908358" lon="2.609041">
        <time>1970-01-01T00:00:00+00:00</time>
        <ele>473.0</ele>
      </trkpt>
      <trkpt lat="42.908495" lon="2.60897">
        <time>1970-01-01T00:00:00+00:00</time>
        <ele>473.0</ele>
      </trkpt>
      <trkpt lat="42.908593" lon="2.608936">
        <time>1970-01-01T00:00:00+00:00</time>
        <ele>472.0</ele>
      </trkpt>
      <trkpt lat="42.908943" lon="2.608911">
        <time>1970-01-01T00:00:00+00:00</time>
        <ele>472.0</ele>
      </trkpt>
      <trkpt lat="42.909043" lon="2.608861">
        <time>1970-01-01T00:00:00+00:00</time>
        <ele>473.0</ele>
      </trkpt>
      <trkpt lat="42.909121" lon="2.608758">
        <time>1970-01-01T00:00:00+00:00</time>
        <ele>476.0</ele>
      </trkpt>
      <trkpt lat="42.909193" lon="2.608627">
        <time>1970-01-01T00:00:00+00:00</time>
        <ele>479.0</ele>
      </trkpt>
      <trkpt lat="42.909494" lon="2.607847">
        <time>1970-01-01T00:00:00+00:00</time>
        <ele>484.0</ele>
      </trkpt>
      <trkpt lat="42.909545" lon="2.607666">
        <time>1970-01-01T00:00:00+00:00</time>
        <ele>485.0</ele>
      </trkpt>
      <trkpt lat="42.909626" lon="2.607251">
        <time>1970-01-01T00:00:00+00:00</time>
        <ele>488.0</ele>
      </trkpt>
      <trkpt lat="42.909702" lon="2.606723">
        <time>1970-01-01T00:00:00+00:00</time>
        <ele>489.0</ele>
      </trkpt>
      <trkpt lat="42.909766" lon="2.606577">
        <time>1970-01-01T00:00:00+00:00</time>
        <ele>488.0</ele>
      </trkpt>
      <trkpt lat="42.909942" lon="2.606368">
        <time>1970-01-01T00:00:00+00:00</time>
        <ele>489.0</ele>
      </trkpt>
      <trkpt lat="42.910006" lon="2.606258">
        <time>1970-01-01T00:00:00+00:00</time>
        <ele>489.0</ele>
      </trkpt>
      <trkpt lat="42.910129" lon="2.606147">
        <time>1970-01-01T00:00:00+00:00</time>
        <ele>490.0</ele>
      </trkpt>
      <trkpt lat="42.910459" lon="2.605942">
        <time>1970-01-01T00:00:00+00:00</time>
        <ele>495.0</ele>
      </trkpt>
      <trkpt lat="42.910503" lon="2.605856">
        <time>1970-01-01T00:00:00+00:00</time>
        <ele>496.0</ele>
      </trkpt>
      <trkpt lat="42.910761" lon="2.604832">
        <time>1970-01-01T00:00:00+00:00</time>
        <ele>506.0</ele>
      </trkpt>
      <trkpt lat="42.910816" lon="2.604743">
        <time>1970-01-01T00:00:00+00:00</time>
        <ele>506.0</ele>
      </trkpt>
      <trkpt lat="42.911023" lon="2.604582">
        <time>1970-01-01T00:00:00+00:00</time>
        <ele>508.0</ele>
      </trkpt>
      <trkpt lat="42.911082" lon="2.604484">
        <time>1970-01-01T00:00:00+00:00</time>
        <ele>508.0</ele>
      </trkpt>
      <trkpt lat="42.911139" lon="2.604274">
        <time>1970-01-01T00:00:00+00:00</time>
        <ele>508.0</ele>
      </trkpt>
      <trkpt lat="42.91119" lon="2.604217">
        <time>1970-01-01T00:00:00+00:00</time>
        <ele>508.0</ele>
      </trkpt>
      <trkpt lat="42.911507" lon="2.604092">
        <time>1970-01-01T00:00:00+00:00</time>
        <ele>506.0</ele>
      </trkpt>
      <trkpt lat="42.911663" lon="2.603853">
        <time>1970-01-01T00:00:00+00:00</time>
        <ele>505.0</ele>
      </trkpt>
      <trkpt lat="42.911723" lon="2.603676">
        <time>1970-01-01T00:00:00+00:00</time>
        <ele>503.0</ele>
      </trkpt>
      <trkpt lat="42.911753" lon="2.603368">
        <time>1970-01-01T00:00:00+00:00</time>
        <ele>502.0</ele>
      </trkpt>
      <trkpt lat="42.911702" lon="2.602852">
        <time>1970-01-01T00:00:00+00:00</time>
        <ele>503.0</ele>
      </trkpt>
      <trkpt lat="42.911614" lon="2.602601">
        <time>1970-01-01T00:00:00+00:00</time>
        <ele>502.0</ele>
      </trkpt>
      <trkpt lat="42.91139" lon="2.602135">
        <time>1970-01-01T00:00:00+00:00</time>
        <ele>499.0</ele>
      </trkpt>
      <trkpt lat="42.911364" lon="2.601989">
        <time>1970-01-01T00:00:00+00:00</time>
        <ele>499.0</ele>
      </trkpt>
      <trkpt lat="42.91136" lon="2.601839">
        <time>1970-01-01T00:00:00+00:00</time>
        <ele>499.0</ele>
      </trkpt>
      <trkpt lat="42.911372" lon="2.601746">
        <time>1970-01-01T00:00:00+00:00</time>
        <ele>500.0</ele>
      </trkpt>
      <trkpt lat="42.911399" lon="2.601678">
        <time>1970-01-01T00:00:00+00:00</time>
        <ele>500.0</ele>
      </trkpt>
      <trkpt lat="42.911507" lon="2.601503">
        <time>1970-01-01T00:00:00+00:00</time>
        <ele>502.0</ele>
      </trkpt>
      <trkpt lat="42.911907" lon="2.601">
        <time>1970-01-01T00:00:00+00:00</time>
        <ele>510.0</ele>
      </trkpt>
      <trkpt lat="42.911966" lon="2.600908">
        <time>1970-01-01T00:00:00+00:00</time>
        <ele>512.0</ele>
      </trkpt>
      <trkpt lat="42.911997" lon="2.600796">
        <time>1970-01-01T00:00:00+00:00</time>
        <ele>513.0</ele>
      </trkpt>
      <trkpt lat="42.912014" lon="2.600413">
        <time>1970-01-01T00:00:00+00:00</time>
        <ele>516.0</ele>
      </trkpt>
      <trkpt lat="42.911965" lon="2.600149">
        <time>1970-01-01T00:00:00+00:00</time>
        <ele>517.0</ele>
      </trkpt>
      <trkpt lat="42.911964" lon="2.600037">
        <time>1970-01-01T00:00:00+00:00</time>
        <ele>518.0</ele>
      </trkpt>
      <trkpt lat="42.911983" lon="2.599876">
        <time>1970-01-01T00:00:00+00:00</time>
        <ele>519.0</ele>
      </trkpt>
      <trkpt lat="42.912061" lon="2.59951">
        <time>1970-01-01T00:00:00+00:00</time>
        <ele>520.0</ele>
      </trkpt>
      <trkpt lat="42.912076" lon="2.599341">
        <time>1970-01-01T00:00:00+00:00</time>
        <ele>520.0</ele>
      </trkpt>
      <trkpt lat="42.912073" lon="2.599058">
        <time>1970-01-01T00:00:00+00:00</time>
        <ele>523.0</ele>
      </trkpt>
      <trkpt lat="42.912059" lon="2.598958">
        <time>1970-01-01T00:00:00+00:00</time>
        <ele>524.0</ele>
      </trkpt>
      <trkpt lat="42.911947" lon="2.598774">
        <time>1970-01-01T00:00:00+00:00</time>
        <ele>525.0</ele>
      </trkpt>
      <trkpt lat="42.911913" lon="2.598669">
        <time>1970-01-01T00:00:00+00:00</time>
        <ele>527.0</ele>
      </trkpt>
      <trkpt lat="42.911897" lon="2.598558">
        <time>1970-01-01T00:00:00+00:00</time>
        <ele>529.0</ele>
      </trkpt>
      <trkpt lat="42.911905" lon="2.598443">
        <time>1970-01-01T00:00:00+00:00</time>
        <ele>531.0</ele>
      </trkpt>
      <trkpt lat="42.91194" lon="2.598301">
        <time>1970-01-01T00:00:00+00:00</time>
        <ele>534.0</ele>
      </trkpt>
      <trkpt lat="42.912017" lon="2.598095">
        <time>1970-01-01T00:00:00+00:00</time>
        <ele>534.0</ele>
      </trkpt>
      <trkpt lat="42.912066" lon="2.59802">
        <time>1970-01-01T00:00:00+00:00</time>
        <ele>534.0</ele>
      </trkpt>
      <trkpt lat="42.912379" lon="2.597715">
        <time>1970-01-01T00:00:00+00:00</time>
        <ele>534.0</ele>
      </trkpt>
      <trkpt lat="42.912505" lon="2.597538">
        <time>1970-01-01T00:00:00+00:00</time>
        <ele>533.0</ele>
      </trkpt>
      <trkpt lat="42.912875" lon="2.596829">
        <time>1970-01-01T00:00:00+00:00</time>
        <ele>532.0</ele>
      </trkpt>
      <trkpt lat="42.913018" lon="2.596612">
        <time>1970-01-01T00:00:00+00:00</time>
        <ele>533.0</ele>
      </trkpt>
      <trkpt lat="42.913393" lon="2.596338">
        <time>1970-01-01T00:00:00+00:00</time>
        <ele>537.0</ele>
      </trkpt>
      <trkpt lat="42.913799" lon="2.596212">
        <time>1970-01-01T00:00:00+00:00</time>
        <ele>539.0</ele>
      </trkpt>
      <trkpt lat="42.913874" lon="2.596215">
        <time>1970-01-01T00:00:00+00:00</time>
        <ele>540.0</ele>
      </trkpt>
      <trkpt lat="42.9144" lon="2.596551">
        <time>1970-01-01T00:00:00+00:00</time>
        <ele>540.0</ele>
      </trkpt>
      <trkpt lat="42.914673" lon="2.596557">
        <time>1970-01-01T00:00:00+00:00</time>
        <ele>535.0</ele>
      </trkpt>
      <trkpt lat="42.914753" lon="2.596582">
        <time>1970-01-01T00:00:00+00:00</time>
        <ele>534.0</ele>
      </trkpt>
      <trkpt lat="42.914879" lon="2.596668">
        <time>1970-01-01T00:00:00+00:00</time>
        <ele>533.0</ele>
      </trkpt>
      <trkpt lat="42.914917" lon="2.596677">
        <time>1970-01-01T00:00:00+00:00</time>
        <ele>533.0</ele>
      </trkpt>
      <trkpt lat="42.914959" lon="2.596657">
        <time>1970-01-01T00:00:00+00:00</time>
        <ele>533.0</ele>
      </trkpt>
      <trkpt lat="42.914985" lon="2.596615">
        <time>1970-01-01T00:00:00+00:00</time>
        <ele>532.0</ele>
      </trkpt>
      <trkpt lat="42.914989" lon="2.59654">
        <time>1970-01-01T00:00:00+00:00</time>
        <ele>531.0</ele>
      </trkpt>
      <trkpt lat="42.914964" lon="2.596476">
        <time>1970-01-01T00:00:00+00:00</time>
        <ele>530.0</ele>
      </trkpt>
      <trkpt lat="42.914849" lon="2.596295">
        <time>1970-01-01T00:00:00+00:00</time>
        <ele>528.0</ele>
      </trkpt>
      <trkpt lat="42.914806" lon="2.596118">
        <time>1970-01-01T00:00:00+00:00</time>
        <ele>526.0</ele>
      </trkpt>
      <trkpt lat="42.914806" lon="2.595886">
        <time>1970-01-01T00:00:00+00:00</time>
        <ele>525.0</ele>
      </trkpt>
      <trkpt lat="42.914823" lon="2.595762">
        <time>1970-01-01T00:00:00+00:00</time>
        <ele>524.0</ele>
      </trkpt>
      <trkpt lat="42.914852" lon="2.595685">
        <time>1970-01-01T00:00:00+00:00</time>
        <ele>524.0</ele>
      </trkpt>
      <trkpt lat="42.915009" lon="2.595247">
        <time>1970-01-01T00:00:00+00:00</time>
        <ele>522.0</ele>
      </trkpt>
      <trkpt lat="42.915218" lon="2.594757">
        <time>1970-01-01T00:00:00+00:00</time>
        <ele>522.0</ele>
      </trkpt>
      <trkpt lat="42.915443" lon="2.594512">
        <time>1970-01-01T00:00:00+00:00</time>
        <ele>523.0</ele>
      </trkpt>
      <trkpt lat="42.915664" lon="2.594153">
        <time>1970-01-01T00:00:00+00:00</time>
        <ele>524.0</ele>
      </trkpt>
      <trkpt lat="42.915869" lon="2.593971">
        <time>1970-01-01T00:00:00+00:00</time>
        <ele>521.0</ele>
      </trkpt>
      <trkpt lat="42.9163" lon="2.593666">
        <time>1970-01-01T00:00:00+00:00</time>
        <ele>517.0</ele>
      </trkpt>
      <trkpt lat="42.916795" lon="2.593171">
        <time>1970-01-01T00:00:00+00:00</time>
        <ele>520.0</ele>
      </trkpt>
      <trkpt lat="42.9172" lon="2.592611">
        <time>1970-01-01T00:00:00+00:00</time>
        <ele>524.0</ele>
      </trkpt>
      <trkpt lat="42.917743" lon="2.592057">
        <time>1970-01-01T00:00:00+00:00</time>
        <ele>529.0</ele>
      </trkpt>
      <trkpt lat="42.917853" lon="2.592047">
        <time>1970-01-01T00:00:00+00:00</time>
        <ele>530.0</ele>
      </trkpt>
      <trkpt lat="42.917947" lon="2.592152">
        <time>1970-01-01T00:00:00+00:00</time>
        <ele>532.0</ele>
      </trkpt>
      <trkpt lat="42.917966" lon="2.592454">
        <time>1970-01-01T00:00:00+00:00</time>
        <ele>534.0</ele>
      </trkpt>
      <trkpt lat="42.917866" lon="2.59271">
        <time>1970-01-01T00:00:00+00:00</time>
        <ele>535.0</ele>
      </trkpt>
      <trkpt lat="42.917903" lon="2.592772">
        <time>1970-01-01T00:00:00+00:00</time>
        <ele>537.0</ele>
      </trkpt>
      <trkpt lat="42.91796" lon="2.592759">
        <time>1970-01-01T00:00:00+00:00</time>
        <ele>538.0</ele>
      </trkpt>
      <trkpt lat="42.91796" lon="2.592759">
        <time>1970-01-01T00:00:00+00:00</time>
        <ele>538.0</ele>
      </trkpt>
      <trkpt lat="42.917903" lon="2.592772">
        <time>1970-01-01T00:00:00+00:00</time>
        <ele>537.0</ele>
      </trkpt>
      <trkpt lat="42.917866" lon="2.59271">
        <time>1970-01-01T00:00:00+00:00</time>
        <ele>535.0</ele>
      </trkpt>
      <trkpt lat="42.917966" lon="2.592454">
        <time>1970-01-01T00:00:00+00:00</time>
        <ele>534.0</ele>
      </trkpt>
      <trkpt lat="42.917947" lon="2.592152">
        <time>1970-01-01T00:00:00+00:00</time>
        <ele>532.0</ele>
      </trkpt>
      <trkpt lat="42.917853" lon="2.592047">
        <time>1970-01-01T00:00:00+00:00</time>
        <ele>530.0</ele>
      </trkpt>
      <trkpt lat="42.917743" lon="2.592057">
        <time>1970-01-01T00:00:00+00:00</time>
        <ele>529.0</ele>
      </trkpt>
      <trkpt lat="42.9172" lon="2.592611">
        <time>1970-01-01T00:00:00+00:00</time>
        <ele>524.0</ele>
      </trkpt>
      <trkpt lat="42.916795" lon="2.593171">
        <time>1970-01-01T00:00:00+00:00</time>
        <ele>520.0</ele>
      </trkpt>
      <trkpt lat="42.9163" lon="2.593666">
        <time>1970-01-01T00:00:00+00:00</time>
        <ele>517.0</ele>
      </trkpt>
      <trkpt lat="42.915869" lon="2.593971">
        <time>1970-01-01T00:00:00+00:00</time>
        <ele>521.0</ele>
      </trkpt>
      <trkpt lat="42.915664" lon="2.594153">
        <time>1970-01-01T00:00:00+00:00</time>
        <ele>524.0</ele>
      </trkpt>
      <trkpt lat="42.915443" lon="2.594512">
        <time>1970-01-01T00:00:00+00:00</time>
        <ele>523.0</ele>
      </trkpt>
      <trkpt lat="42.915218" lon="2.594757">
        <time>1970-01-01T00:00:00+00:00</time>
        <ele>522.0</ele>
      </trkpt>
      <trkpt lat="42.915009" lon="2.595247">
        <time>1970-01-01T00:00:00+00:00</time>
        <ele>522.0</ele>
      </trkpt>
      <trkpt lat="42.914852" lon="2.595685">
        <time>1970-01-01T00:00:00+00:00</time>
        <ele>524.0</ele>
      </trkpt>
      <trkpt lat="42.914823" lon="2.595762">
        <time>1970-01-01T00:00:00+00:00</time>
        <ele>524.0</ele>
      </trkpt>
      <trkpt lat="42.914806" lon="2.595886">
        <time>1970-01-01T00:00:00+00:00</time>
        <ele>525.0</ele>
      </trkpt>
      <trkpt lat="42.914806" lon="2.596118">
        <time>1970-01-01T00:00:00+00:00</time>
        <ele>526.0</ele>
      </trkpt>
      <trkpt lat="42.914849" lon="2.596295">
        <time>1970-01-01T00:00:00+00:00</time>
        <ele>528.0</ele>
      </trkpt>
      <trkpt lat="42.914964" lon="2.596476">
        <time>1970-01-01T00:00:00+00:00</time>
        <ele>530.0</ele>
      </trkpt>
      <trkpt lat="42.914989" lon="2.59654">
        <time>1970-01-01T00:00:00+00:00</time>
        <ele>531.0</ele>
      </trkpt>
      <trkpt lat="42.914985" lon="2.596615">
        <time>1970-01-01T00:00:00+00:00</time>
        <ele>532.0</ele>
      </trkpt>
      <trkpt lat="42.914959" lon="2.596657">
        <time>1970-01-01T00:00:00+00:00</time>
        <ele>533.0</ele>
      </trkpt>
      <trkpt lat="42.914917" lon="2.596677">
        <time>1970-01-01T00:00:00+00:00</time>
        <ele>533.0</ele>
      </trkpt>
      <trkpt lat="42.914879" lon="2.596668">
        <time>1970-01-01T00:00:00+00:00</time>
        <ele>533.0</ele>
      </trkpt>
      <trkpt lat="42.914753" lon="2.596582">
        <time>1970-01-01T00:00:00+00:00</time>
        <ele>534.0</ele>
      </trkpt>
      <trkpt lat="42.914673" lon="2.596557">
        <time>1970-01-01T00:00:00+00:00</time>
        <ele>535.0</ele>
      </trkpt>
      <trkpt lat="42.9144" lon="2.596551">
        <time>1970-01-01T00:00:00+00:00</time>
        <ele>540.0</ele>
      </trkpt>
      <trkpt lat="42.913874" lon="2.596215">
        <time>1970-01-01T00:00:00+00:00</time>
        <ele>540.0</ele>
      </trkpt>
      <trkpt lat="42.913799" lon="2.596212">
        <time>1970-01-01T00:00:00+00:00</time>
        <ele>539.0</ele>
      </trkpt>
      <trkpt lat="42.913393" lon="2.596338">
        <time>1970-01-01T00:00:00+00:00</time>
        <ele>537.0</ele>
      </trkpt>
      <trkpt lat="42.913018" lon="2.596612">
        <time>1970-01-01T00:00:00+00:00</time>
        <ele>533.0</ele>
      </trkpt>
      <trkpt lat="42.912875" lon="2.596829">
        <time>1970-01-01T00:00:00+00:00</time>
        <ele>532.0</ele>
      </trkpt>
      <trkpt lat="42.912505" lon="2.597538">
        <time>1970-01-01T00:00:00+00:00</time>
        <ele>533.0</ele>
      </trkpt>
      <trkpt lat="42.912379" lon="2.597715">
        <time>1970-01-01T00:00:00+00:00</time>
        <ele>534.0</ele>
      </trkpt>
      <trkpt lat="42.912066" lon="2.59802">
        <time>1970-01-01T00:00:00+00:00</time>
        <ele>534.0</ele>
      </trkpt>
      <trkpt lat="42.912017" lon="2.598095">
        <time>1970-01-01T00:00:00+00:00</time>
        <ele>534.0</ele>
      </trkpt>
      <trkpt lat="42.91194" lon="2.598301">
        <time>1970-01-01T00:00:00+00:00</time>
        <ele>534.0</ele>
      </trkpt>
      <trkpt lat="42.911905" lon="2.598443">
        <time>1970-01-01T00:00:00+00:00</time>
        <ele>531.0</ele>
      </trkpt>
      <trkpt lat="42.911897" lon="2.598558">
        <time>1970-01-01T00:00:00+00:00</time>
        <ele>529.0</ele>
      </trkpt>
      <trkpt lat="42.911913" lon="2.598669">
        <time>1970-01-01T00:00:00+00:00</time>
        <ele>527.0</ele>
      </trkpt>
      <trkpt lat="42.911947" lon="2.598774">
        <time>1970-01-01T00:00:00+00:00</time>
        <ele>525.0</ele>
      </trkpt>
      <trkpt lat="42.912059" lon="2.598958">
        <time>1970-01-01T00:00:00+00:00</time>
        <ele>524.0</ele>
      </trkpt>
      <trkpt lat="42.912073" lon="2.599058">
        <time>1970-01-01T00:00:00+00:00</time>
        <ele>523.0</ele>
      </trkpt>
      <trkpt lat="42.912076" lon="2.599341">
        <time>1970-01-01T00:00:00+00:00</time>
        <ele>520.0</ele>
      </trkpt>
      <trkpt lat="42.912061" lon="2.59951">
        <time>1970-01-01T00:00:00+00:00</time>
        <ele>520.0</ele>
      </trkpt>
      <trkpt lat="42.911983" lon="2.599876">
        <time>1970-01-01T00:00:00+00:00</time>
        <ele>519.0</ele>
      </trkpt>
      <trkpt lat="42.911964" lon="2.600037">
        <time>1970-01-01T00:00:00+00:00</time>
        <ele>518.0</ele>
      </trkpt>
      <trkpt lat="42.911965" lon="2.600149">
        <time>1970-01-01T00:00:00+00:00</time>
        <ele>517.0</ele>
      </trkpt>
      <trkpt lat="42.912014" lon="2.600413">
        <time>1970-01-01T00:00:00+00:00</time>
        <ele>516.0</ele>
      </trkpt>
      <trkpt lat="42.911997" lon="2.600796">
        <time>1970-01-01T00:00:00+00:00</time>
        <ele>513.0</ele>
      </trkpt>
      <trkpt lat="42.911966" lon="2.600908">
        <time>1970-01-01T00:00:00+00:00</time>
        <ele>512.0</ele>
      </trkpt>
      <trkpt lat="42.911907" lon="2.601">
        <time>1970-01-01T00:00:00+00:00</time>
        <ele>510.0</ele>
      </trkpt>
      <trkpt lat="42.911507" lon="2.601503">
        <time>1970-01-01T00:00:00+00:00</time>
        <ele>502.0</ele>
      </trkpt>
      <trkpt lat="42.911399" lon="2.601678">
        <time>1970-01-01T00:00:00+00:00</time>
        <ele>500.0</ele>
      </trkpt>
      <trkpt lat="42.911372" lon="2.601746">
        <time>1970-01-01T00:00:00+00:00</time>
        <ele>500.0</ele>
      </trkpt>
      <trkpt lat="42.91136" lon="2.601839">
        <time>1970-01-01T00:00:00+00:00</time>
        <ele>499.0</ele>
      </trkpt>
      <trkpt lat="42.911364" lon="2.601989">
        <time>1970-01-01T00:00:00+00:00</time>
        <ele>499.0</ele>
      </trkpt>
      <trkpt lat="42.91139" lon="2.602135">
        <time>1970-01-01T00:00:00+00:00</time>
        <ele>499.0</ele>
      </trkpt>
      <trkpt lat="42.911614" lon="2.602601">
        <time>1970-01-01T00:00:00+00:00</time>
        <ele>502.0</ele>
      </trkpt>
      <trkpt lat="42.911702" lon="2.602852">
        <time>1970-01-01T00:00:00+00:00</time>
        <ele>503.0</ele>
      </trkpt>
      <trkpt lat="42.911753" lon="2.603368">
        <time>1970-01-01T00:00:00+00:00</time>
        <ele>502.0</ele>
      </trkpt>
      <trkpt lat="42.911723" lon="2.603676">
        <time>1970-01-01T00:00:00+00:00</time>
        <ele>503.0</ele>
      </trkpt>
      <trkpt lat="42.911663" lon="2.603853">
        <time>1970-01-01T00:00:00+00:00</time>
        <ele>505.0</ele>
      </trkpt>
      <trkpt lat="42.911507" lon="2.604092">
        <time>1970-01-01T00:00:00+00:00</time>
        <ele>506.0</ele>
      </trkpt>
      <trkpt lat="42.91119" lon="2.604217">
        <time>1970-01-01T00:00:00+00:00</time>
        <ele>508.0</ele>
      </trkpt>
      <trkpt lat="42.911139" lon="2.604274">
        <time>1970-01-01T00:00:00+00:00</time>
        <ele>508.0</ele>
      </trkpt>
      <trkpt lat="42.911082" lon="2.604484">
        <time>1970-01-01T00:00:00+00:00</time>
        <ele>508.0</ele>
      </trkpt>
      <trkpt lat="42.911023" lon="2.604582">
        <time>1970-01-01T00:00:00+00:00</time>
        <ele>508.0</ele>
      </trkpt>
      <trkpt lat="42.910816" lon="2.604743">
        <time>1970-01-01T00:00:00+00:00</time>
        <ele>506.0</ele>
      </trkpt>
      <trkpt lat="42.910761" lon="2.604832">
        <time>1970-01-01T00:00:00+00:00</time>
        <ele>506.0</ele>
      </trkpt>
      <trkpt lat="42.910503" lon="2.605856">
        <time>1970-01-01T00:00:00+00:00</time>
        <ele>496.0</ele>
      </trkpt>
      <trkpt lat="42.910459" lon="2.605942">
        <time>1970-01-01T00:00:00+00:00</time>
        <ele>495.0</ele>
      </trkpt>
      <trkpt lat="42.910129" lon="2.606147">
        <time>1970-01-01T00:00:00+00:00</time>
        <ele>490.0</ele>
      </trkpt>
      <trkpt lat="42.910006" lon="2.606258">
        <time>1970-01-01T00:00:00+00:00</time>
        <ele>489.0</ele>
      </trkpt>
      <trkpt lat="42.909942" lon="2.606368">
        <time>1970-01-01T00:00:00+00:00</time>
        <ele>489.0</ele>
      </trkpt>
      <trkpt lat="42.909766" lon="2.606577">
        <time>1970-01-01T00:00:00+00:00</time>
        <ele>488.0</ele>
      </trkpt>
      <trkpt lat="42.909702" lon="2.606723">
        <time>1970-01-01T00:00:00+00:00</time>
        <ele>489.0</ele>
      </trkpt>
      <trkpt lat="42.909626" lon="2.607251">
        <time>1970-01-01T00:00:00+00:00</time>
        <ele>488.0</ele>
      </trkpt>
      <trkpt lat="42.909545" lon="2.607666">
        <time>1970-01-01T00:00:00+00:00</time>
        <ele>485.0</ele>
      </trkpt>
      <trkpt lat="42.909494" lon="2.607847">
        <time>1970-01-01T00:00:00+00:00</time>
        <ele>484.0</ele>
      </trkpt>
      <trkpt lat="42.909193" lon="2.608627">
        <time>1970-01-01T00:00:00+00:00</time>
        <ele>479.0</ele>
      </trkpt>
      <trkpt lat="42.909121" lon="2.608758">
        <time>1970-01-01T00:00:00+00:00</time>
        <ele>476.0</ele>
      </trkpt>
      <trkpt lat="42.909043" lon="2.608861">
        <time>1970-01-01T00:00:00+00:00</time>
        <ele>473.0</ele>
      </trkpt>
      <trkpt lat="42.908943" lon="2.608911">
        <time>1970-01-01T00:00:00+00:00</time>
        <ele>472.0</ele>
      </trkpt>
      <trkpt lat="42.908593" lon="2.608936">
        <time>1970-01-01T00:00:00+00:00</time>
        <ele>472.0</ele>
      </trkpt>
      <trkpt lat="42.908495" lon="2.60897">
        <time>1970-01-01T00:00:00+00:00</time>
        <ele>473.0</ele>
      </trkpt>
      <trkpt lat="42.908358" lon="2.609041">
        <time>1970-01-01T00:00:00+00:00</time>
        <ele>473.0</ele>
      </trkpt>
      <trkpt lat="42.908144" lon="2.609239">
        <time>1970-01-01T00:00:00+00:00</time>
        <ele>473.0</ele>
      </trkpt>
      <trkpt lat="42.908063" lon="2.609362">
        <time>1970-01-01T00:00:00+00:00</time>
        <ele>473.0</ele>
      </trkpt>
      <trkpt lat="42.907992" lon="2.609524">
        <time>1970-01-01T00:00:00+00:00</time>
        <ele>473.0</ele>
      </trkpt>
      <trkpt lat="42.907739" lon="2.610475">
        <time>1970-01-01T00:00:00+00:00</time>
        <ele>470.0</ele>
      </trkpt>
      <trkpt lat="42.907664" lon="2.610804">
        <time>1970-01-01T00:00:00+00:00</time>
        <ele>469.0</ele>
      </trkpt>
      <trkpt lat="42.907628" lon="2.611039">
        <time>1970-01-01T00:00:00+00:00</time>
        <ele>468.0</ele>
      </trkpt>
      <trkpt lat="42.907621" lon="2.611245">
        <time>1970-01-01T00:00:00+00:00</time>
        <ele>468.0</ele>
      </trkpt>
      <trkpt lat="42.907631" lon="2.611411">
        <time>1970-01-01T00:00:00+00:00</time>
        <ele>468.0</ele>
      </trkpt>
      <trkpt lat="42.90767" lon="2.611605">
        <time>1970-01-01T00:00:00+00:00</time>
        <ele>468.0</ele>
      </trkpt>
      <trkpt lat="42.907859" lon="2.612201">
        <time>1970-01-01T00:00:00+00:00</time>
        <ele>463.0</ele>
      </trkpt>
      <trkpt lat="42.907892" lon="2.612466">
        <time>1970-01-01T00:00:00+00:00</time>
        <ele>461.0</ele>
      </trkpt>
      <trkpt lat="42.907894" lon="2.612752">
        <time>1970-01-01T00:00:00+00:00</time>
        <ele>459.0</ele>
      </trkpt>
      <trkpt lat="42.907874" lon="2.612889">
        <time>1970-01-01T00:00:00+00:00</time>
        <ele>458.0</ele>
      </trkpt>
      <trkpt lat="42.907712" lon="2.613519">
        <time>1970-01-01T00:00:00+00:00</time>
        <ele>458.0</ele>
      </trkpt>
      <trkpt lat="42.907712" lon="2.613614">
        <time>1970-01-01T00:00:00+00:00</time>
        <ele>458.0</ele>
      </trkpt>
      <trkpt lat="42.907835" lon="2.61406">
        <time>1970-01-01T00:00:00+00:00</time>
        <ele>454.0</ele>
      </trkpt>
      <trkpt lat="42.907857" lon="2.614256">
        <time>1970-01-01T00:00:00+00:00</time>
        <ele>452.0</ele>
      </trkpt>
      <trkpt lat="42.907861" lon="2.61551">
        <time>1970-01-01T00:00:00+00:00</time>
        <ele>447.0</ele>
      </trkpt>
      <trkpt lat="42.907953" lon="2.616598">
        <time>1970-01-01T00:00:00+00:00</time>
        <ele>440.0</ele>
      </trkpt>
      <trkpt lat="42.907952" lon="2.618166">
        <time>1970-01-01T00:00:00+00:00</time>
        <ele>433.0</ele>
      </trkpt>
      <trkpt lat="42.907948" lon="2.618563">
        <time>1970-01-01T00:00:00+00:00</time>
        <ele>430.0</ele>
      </trkpt>
      <trkpt lat="42.907712" lon="2.620144">
        <time>1970-01-01T00:00:00+00:00</time>
        <ele>425.0</ele>
      </trkpt>
      <trkpt lat="42.907726" lon="2.620919">
        <time>1970-01-01T00:00:00+00:00</time>
        <ele>419.0</ele>
      </trkpt>
      <trkpt lat="42.907711" lon="2.621224">
        <time>1970-01-01T00:00:00+00:00</time>
        <ele>416.0</ele>
      </trkpt>
      <trkpt lat="42.907461" lon="2.622049">
        <time>1970-01-01T00:00:00+00:00</time>
        <ele>413.0</ele>
      </trkpt>
      <trkpt lat="42.907414" lon="2.622483">
        <time>1970-01-01T00:00:00+00:00</time>
        <ele>411.0</ele>
      </trkpt>
      <trkpt lat="42.907417" lon="2.622657">
        <time>1970-01-01T00:00:00+00:00</time>
        <ele>410.0</ele>
      </trkpt>
      <trkpt lat="42.907444" lon="2.622822">
        <time>1970-01-01T00:00:00+00:00</time>
        <ele>409.0</ele>
      </trkpt>
      <trkpt lat="42.907506" lon="2.622977">
        <time>1970-01-01T00:00:00+00:00</time>
        <ele>407.0</ele>
      </trkpt>
      <trkpt lat="42.90801" lon="2.623893">
        <time>1970-01-01T00:00:00+00:00</time>
        <ele>403.0</ele>
      </trkpt>
      <trkpt lat="42.908043" lon="2.62398">
        <time>1970-01-01T00:00:00+00:00</time>
        <ele>403.0</ele>
      </trkpt>
      <trkpt lat="42.908232" lon="2.624467">
        <time>1970-01-01T00:00:00+00:00</time>
        <ele>400.0</ele>
      </trkpt>
    </trkseg>
  </trk>
</gpx>
